FENGYUN 1C DEB, 31152

Orbit data source: Space-Track

FENGYUN 1C DEB, 31152 is space debris in SSO originally from a launch on Mon, 10 May 1999 UTC launched from the Taiyaun Space Center, China (TSC). Fengyun 1C debris stems from the Chinese weather satellite Fengyun-1C, which was intentionally destroyed by a Chinese anti-satellite missile in 2007. This event dramatically increased the amount of space debris, with thousands of trackable fragments posing hazards to satellites and human spaceflight. The Fengyun 1C debris cloud has become a focal point in discussions about space sustainability and the need for international regulations to prevent the creation of new debris.

Loading next visibility...
Identifier
31152, 1999-025BHE
Orbit
SSO
Country
Flag of CNCN / PRC
Related business
Manufacturer
Unknown
Mission
Spacecraft
Bus & Motor
Unknown
Mass
Unknown
Launch date (UTC)
1999-05-10 (27 years ago)
Launch vehicle
Unknown
Launch site
Taiyaun Space Center, China (TSC)
Object type
Payload
Rocket body
Debris
Shape & HBR
Unknown shape, 0.1 m
Radar Cross Section
Small (<0.1 m²)

Expand to show TLE details & history
Last TLE update: 1 day ago

TLE from 1 day ago
0 FENGYUN 1C DEB
1 31152U 99025BHE 25312.73337191  .00000336  00000-0  11951-3 0  9996
2 31152  98.4121 300.1490 0130388 133.9815  47.2784 14.35814363975606
Epoch: 2025-11-08T17:36Z
TLE epoch observation values (Epoch: 2025-11-08T17:36:03.333Z)
Latitude
-2.4775°
Longitude
167.61173°
Altitude
713.061 km
Speed
7.532 km/s
True Right ascension
07h 59m 08s
True Declination
-2° 27' 45"
Sunlit
Object was in daylight at epoch
Visualization orbit readout
Latitude
Unknown
Longitude
Unknown
Altitude
Unknown
Speed
Unknown
Apparent Right ascension
Unknown
Apparent Declination
Unknown
Sunlit
N/A
Visualization observer readout
Local Sidereal Time
19:00:24
Azimuth
Unknown
Elevation
Unknown
Doppler factor
Unknown
Orbital elements
Apogee altitude
862.68 km
Perigee altitude
676.288 km
Semi-major axis
7,147.621 km
Eccentricity
0.01304
Inclination
98.4121°
RAAN
300.149°
Arg. of periapsis
133.9815°
True anomaly
48.38828°
Mean anomaly
47.2784°
Eccentric anomaly
47.83211°
Mean motion
3.59171 °/min
Orbital period
100.23 mins
BSTAR
0.00011951
Loading maneuver chart data...
Computing Atmospheric mass density...

Documentation

Showing up to 5 results
|